User: anonymous   Login
Location: Caltech
(34.1382°N, 118.1253°W)
Time: 16:47:16
(UTC-07:00)
Language:

Cosmos 676 Rocket - Orbit

View from above orbital plane
View from above orbital plane
View from above satellite
View from above satellite

Ground track
Ground track

The orbit data is extracted from the following two-line orbital elements,

1  7434U 74071B   17227.83201119 +.00000033 +00000-0 +20175-4 0  9996
2  7434 074.0467 104.4960 0020670 357.6338 002.4714 14.36635468245007
Epoch (UTC): 15 August 2017 19:58:05
Eccentricity: 0.0020670
inclination: 74.0467°
perigee height: 755 km
apogee height: 784 km
right ascension of ascending node: 104.4960°
argument of perigee: 357.6338°
revolutions per day: 14.36635468
mean anomaly at epoch: 2.4714°
orbit number at epoch: 24500

The dashed part of the orbit path shows where the satellite is in the earth's shadow,  

DLR